GOES 16                 
1 41866U 16071A   19261.49553500 -.00000252  00000-0  00000+0 0  9999
2 41866   0.0221 352.2986 0000830 235.6181 232.4151  1.00271759 10409
ATLAS 5 CENTAUR R/B     
1 41867U 16071B   19261.43936614 -.00000134  00000-0  00000+0 0  9994
2 41867  10.5659 142.4905 4907637  37.6198 348.3639  1.89352348 19558